Wind_Speed
19 18 19 19 18 18 18 19 19 18 19 18 18 19 20 20 21 21 20 21 21 21 20 20 21 21 22 22 22 22 23 22 22 23 23 23 24 24 24 24 24 24 24 24
19 19 19 18 19 19 19 19 19 20 19 19 20 20 20 20 20 21 21 21 22 22 22 22 22 22 23 23 23 24 24 23 24 24 24 25 25 26 26 26 26 25 25 25
20 19 20 20 20 20 20 20 21 21 20 20 21 21 20 20 20 21 22 22 23 23 23 24 24 24 24 24 24 25 25 25 25 25 25 26 27 27 27 27 27 26 26 26
21 21 22 19 19 20 21 20 21 21 21 21 21 21 21 21 21 22 23 23 24 25 25 25 25 25 25 25 26 26 26 26 26 26 27 27 28 28 28 28 28 28 27 27
22 23 22 20 20 20 21 21 21 22 22 21 21 22 22 22 22 22 23 23 24 24 25 26 26 26 26 27 27 27 27 27 27 28 28 29 29 29 30 29 29 28 28 27
23 23 23 21 21 22 22 21 21 22 23 22 22 22 22 22 23 23 23 24 25 25 26 26 26 27 27 28 28 29 28 28 28 28 28 29 29 30 30 30 30 29 29 28
24 24 23 22 22 22 22 21 21 22 23 22 22 22 22 23 24 24 24 24 25 26 26 27 27 28 29 29 29 29 29 28 29 29 29 29 29 29 30 30 30 30 30 30
24 24 23 22 22 23 23 22 22 22 22 22 22 22 23 23 24 24 24 25 26 26 26 27 27 28 29 29 29 29 29 29 29 29 29 29 29 29 30 30 30 30 30 30
24 24 24 24 24 24 24 23 23 22 22 22 22 22 23 24 24 25 25 26 26 26 26 27 28 28 29 29 29 29 29 29 29 29 30 29 29 29 30 31 31 31 31 30
25 25 25 25 25 25 25 24 24 24 24 23 22 22 23 24 25 25 26 26 26 26 27 27 28 28 29 29 29 29 29 29 29 29 29 29 29 29 30 31 31 32 32 31
25 25 25 25 25 26 26 25 24 24 24 24 24 24 24 25 25 25 26 26 26 26 27 28 29 29 28 29 28 29 29 29 29 28 29 29 29 29 30 30 31 32 33 33
27 26 26 24 25 26 25 25 25 25 25 25 24 24 25 25 25 26 26 26 27 27 27 28 29 29 29 29 29 29 30 29 29 29 29 29 30 30 30 31 32 32 33 33
27 27 26 25 25 25 25 26 26 26 25 25 25 25 25 25 25 26 26 26 26 27 27 28 29 29 29 30 30 30 31 31 30 30 30 31 31 31 32 33 33 33 33 34
27 27 27 26 26 25 25 26 26 27 27 26 26 26 25 25 26 26 26 26 27 27 28 28 29 30 30 31 31 32 32 32 32 32 32 32 32 33 34 34 34 34 34 35
27 27 27 27 27 27 27 27 27 27 27 27 27 26 26 26 27 27 27 27 27 28 29 30 30 30 31 31 32 32 32 33 33 33 33 33 34 34 34 34 34 34 34 34
28 28 28 28 29 29 29 29 28 28 28 28 27 26 26 27 27 28 28 28 29 30 31 31 32 32 32 33 32 33 33 33 33 33 34 34 34 34 34 34 34 34 33 33
29 29 30 30 30 30 30 30 30 30 30 29 28 28 28 28 29 30 30 30 31 32 32 33 34 34 33 33 34 34 34 34 34 34 34 34 34 34 34 33 33 33 32 32
29 30 30 30 31 31 30 30 30 30 30 31 30 30 30 31 32 32 32 32 32 33 33 34 34 35 34 34 34 34 35 34 34 34 34 34 33 33 33 33 32 32 31 31
29 30 30 30 30 30 30 30 30 30 31 31 31 32 32 33 34 34 34 34 35 35 35 35 35 35 35 35 35 35 34 34 34 34 34 34 33 33 32 32 32 31 30 30
29 29 29 30 30 30 31 32 31 31 31 31 32 33 33 33 34 35 36 36 36 36 36 36 36 35 35 35 35 35 35 34 34 33 33 33 33 33 32 32 31 30 30 30
28 29 29 29 29 30 31 31 31 30 31 32 32 32 33 33 34 35 35 36 36 36 36 36 36 36 36 36 35 35 34 34 33 33 33 33 32 32 31 31 31 30 30 30
29 29 30 29 30 31 31 31 31 31 31 32 33 33 33 33 34 34 34 34 34 35 35 36 36 36 36 36 35 34 33 32 32 31 31 31 31 31 31 31 31 31 31 30
29 29 29 29 30 30 30 30 30 31 31 32 32 33 33 33 34 34 34 34 34 34 35 35 36 36 35 35 34 33 32 31 31 30 30 30 30 29 29 29 30 30 30 29
28 28 29 29 29 30 29 29 30 30 31 31 31 32 32 33 33 33 33 33 33 33 34 35 35 34 34 33 33 32 31 31 30 29 29 29 29 29 29 29 28 28 28 28
28 29 30 30 30 30 30 30 31 31 31 31 32 32 33 33 33 33 33 34 34 34 34 34 33 33 33 33 32 32 30 30 29 29 28 27 27 27 27 27 27 27 27 28
28 28 29 29 29 29 30 30 31 30 31 31 31 32 33 33 33 33 33 33 33 33 33 33 32 31 31 31 30 29 28 27 27 27 27 26 26 26 26 26 26 26 26 26
28 28 28 28 29 29 30 31 31 31 32 32 32 32 32 32 32 32 33 33 33 33 33 32 31 30 29 28 28 27 26 26 27 26 25 25 26 26 26 26 26 26 26 26
Wind_Direction
260 259 260 262 263 266 267 270 273 276 276 276 277 277 278 279 279 280 281 281 281 282 283 285 285 284 285 285 286 286 285 287 286 286 286 285 285 284 284 284 283 282 281 281
258 260 260 261 264 269 270 271 272 274 277 276 276 277 278 279 279 279 280 280 281 282 284 286 286 286 287 287 286 286 286 287 287 287 287 286 284 284 283 284 284 283 281 279
259 261 262 261 265 271 273 274 276 278 278 277 277 277 278 278 278 279 280 281 282 282 284 285 285 286 286 287 287 287 286 285 287 288 288 288 286 285 285 285 283 283 282 279
261 263 260 263 265 269 272 274 276 278 279 280 280 279 278 279 279 280 281 282 283 284 285 285 285 285 286 286 286 287 287 286 287 287 288 288 288 287 287 287 285 284 282 280
263 265 266 266 268 270 273 275 277 279 280 283 281 278 279 280 281 281 281 283 285 286 286 287 287 286 286 288 288 289 288 288 288 289 289 288 288 287 287 286 286 284 283 281
264 266 267 271 272 272 273 276 280 281 281 281 281 279 279 280 281 282 283 284 286 287 287 288 288 288 288 288 288 289 290 290 290 291 290 289 287 286 285 285 284 283 281 281
263 266 268 270 272 274 275 279 281 283 283 281 281 281 281 281 283 283 284 284 286 287 287 288 288 289 289 288 288 289 290 290 290 291 291 289 287 286 285 283 282 282 281 280
264 265 267 270 273 276 277 280 282 282 282 281 281 282 283 284 284 284 285 286 287 287 287 289 290 290 290 289 289 289 288 289 290 290 291 289 287 286 285 283 282 282 282 281
264 266 268 269 271 274 277 280 281 281 280 280 280 282 283 284 285 286 286 286 286 287 288 290 291 291 291 291 291 289 289 289 290 290 291 289 287 286 284 283 282 282 282 281
265 265 266 268 270 272 276 279 281 281 280 281 281 282 284 286 287 288 287 287 288 289 290 291 293 292 293 293 291 290 290 291 291 291 292 291 288 285 285 285 283 281 281 281
264 264 266 267 269 271 273 276 278 280 281 282 284 284 285 287 288 289 289 288 290 292 293 292 293 294 293 293 292 291 291 291 291 291 292 291 290 289 288 286 285 283 281 281
264 265 267 269 270 270 273 275 277 279 280 281 281 282 282 284 287 289 289 291 293 293 294 294 294 294 294 293 294 293 292 291 291 291 292 292 292 291 289 288 286 285 285 284
265 266 267 269 271 272 273 275 275 277 278 278 280 281 282 284 285 286 287 289 291 292 295 296 297 297 296 294 294 294 292 292 291 291 291 292 291 290 289 289 288 286 285 285
268 267 267 267 269 272 273 275 275 275 277 277 279 280 282 284 286 286 287 289 292 294 295 297 298 298 297 297 296 295 293 291 291 291 292 292 291 290 290 290 290 288 286 284
267 268 267 266 267 269 272 275 276 275 275 276 277 278 280 282 286 286 287 290 293 294 295 297 299 299 298 298 297 296 294 292 290 291 292 292 292 291 290 290 290 289 288 285
266 267 268 268 269 270 272 274 275 276 276 277 277 278 279 281 283 285 285 288 291 293 295 296 296 297 297 297 296 295 294 293 292 291 291 292 293 293 291 290 289 289 288 286
266 266 268 269 270 271 272 272 273 274 275 275 276 278 280 282 284 286 288 288 290 292 294 296 297 297 297 298 297 296 295 295 294 292 292 292 292 292 292 292 291 289 288 287
266 267 268 269 269 270 271 273 273 274 275 276 276 279 280 282 284 286 287 288 290 292 294 296 297 299 299 298 298 297 295 295 295 294 293 292 292 292 293 293 293 291 289 288
268 267 267 268 268 270 272 273 273 274 274 275 277 279 281 283 284 286 287 288 290 292 293 295 297 298 299 298 299 298 296 295 295 295 295 294 293 293 294 294 293 292 290 288
270 270 270 269 269 270 273 274 273 274 275 276 277 279 280 282 283 284 286 287 289 291 292 294 295 296 298 298 298 297 297 295 294 294 293 293 293 292 293 293 293 292 290 289
272 272 272 271 271 273 275 274 275 276 277 278 279 280 281 282 284 284 286 286 288 289 290 292 294 296 297 297 297 297 297 296 295 295 294 293 292 292 292 292 291 291 291 290
273 274 273 273 274 275 275 275 276 276 277 279 280 281 282 283 285 286 287 288 288 289 291 292 294 295 296 297 297 297 297 296 296 295 295 294 294 294 293 292 292 291 290 289
273 273 273 273 274 274 275 276 277 278 280 281 281 282 284 284 285 286 287 288 289 290 290 292 293 295 296 297 297 296 297 297 298 298 297 295 295 295 294 293 293 293 291 290
273 272 272 273 274 274 275 276 277 280 282 283 284 284 285 286 288 289 289 290 291 292 292 293 293 294 295 296 296 295 296 296 296 297 297 297 297 296 295 294 294 293 293 292
272 272 273 274 274 275 276 277 279 281 282 283 284 284 286 288 289 290 290 291 293 294 296 296 294 294 294 295 295 294 295 296 297 296 297 297 298 299 298 298 296 295 295 295
274 274 273 273 274 275 276 277 278 280 282 283 284 285 287 288 288 290 291 293 294 296 296 296 296 295 294 294 293 292 293 296 297 297 297 297 298 299 300 300 299 298 297 297
275 275 275 275 276 276 276 278 279 280 282 283 284 285 287 287 287 288 290 292 294 295 296 295 296 296 295 295 294 293 293 295 296 296 296 296 297 299 300 300 300 299 297 298
Height
5790 5791 5791 5792 5793 5793 5793 5793 5793 5794 5793 5793 5793 5792 5792 5791 5790 5789 5789 5788 5787 5786 5785 5784 5783 5782 5781 5779 5778 5777 5776 5774 5773 5772 5770 5768 5766 5764 5762 5761 5760 5758 5756 5755
5786 5786 5786 5787 5788 5788 5788 5788 5788 5788 5789 5788 5787 5787 5786 5785 5785 5784 5783 5782 5781 5780 5779 5778 5777 5776 5774 5773 5772 5770 5769 5768 5766 5764 5762 5761 5759 5757 5755 5753 5752 5750 5748 5747
5781 5781 5781 5782 5784 5784 5784 5784 5784 5783 5784 5782 5782 5781 5780 5780 5779 5778 5777 5776 5775 5774 5773 5772 5770 5769 5768 5766 5765 5763 5762 5760 5758 5757 5754 5753 5751 5749 5747 5745 5743 5742 5740 5739
5775 5776 5776 5780 5779 5778 5778 5778 5778 5777 5777 5776 5775 5775 5774 5773 5772 5771 5770 5769 5768 5767 5766 5764 5763 5762 5760 5759 5757 5756 5754 5752 5751 5749 5746 5744 5742 5740 5739 5737 5735 5733 5731 5730
5769 5769 5771 5773 5773 5773 5773 5773 5772 5771 5771 5770 5769 5768 5768 5767 5766 5765 5764 5763 5761 5760 5758 5757 5755 5754 5752 5751 5749 5748 5746 5744 5742 5740 5738 5736 5734 5732 5730 5728 5726 5724 5723 5721
5763 5763 5765 5768 5767 5766 5767 5767 5767 5765 5764 5764 5763 5763 5763 5761 5759 5758 5757 5756 5754 5753 5751 5749 5748 5746 5744 5743 5741 5739 5738 5736 5733 5731 5729 5727 5725 5723 5721 5719 5717 5716 5714 5713
5757 5757 5759 5761 5760 5761 5762 5762 5760 5759 5758 5757 5756 5756 5756 5754 5753 5751 5750 5748 5747 5745 5743 5741 5740 5738 5736 5734 5732 5731 5729 5727 5724 5722 5720 5718 5716 5714 5712 5710 5709 5707 5706 5704
5751 5752 5755 5754 5754 5755 5755 5754 5753 5752 5752 5751 5750 5749 5748 5747 5746 5744 5743 5741 5739 5737 5735 5733 5731 5729 5727 5726 5724 5722 5720 5718 5715 5713 5711 5709 5707 5705 5703 5701 5700 5698 5696 5695
5746 5747 5747 5747 5747 5747 5747 5747 5746 5746 5745 5744 5743 5742 5741 5740 5739 5737 5735 5733 5732 5730 5727 5725 5723 5721 5719 5717 5715 5713 5711 5709 5707 5704 5702 5700 5698 5696 5694 5692 5690 5689 5687 5686
5738 5739 5739 5740 5740 5740 5740 5740 5739 5739 5738 5737 5737 5736 5734 5733 5731 5730 5728 5726 5724 5722 5720 5717 5715 5713 5711 5709 5706 5704 5702 5700 5698 5695 5693 5691 5688 5686 5684 5682 5681 5679 5678 5676
5731 5732 5732 5733 5733 5733 5733 5733 5732 5732 5731 5730 5729 5729 5727 5726 5724 5722 5720 5718 5716 5714 5712 5710 5707 5705 5703 5700 5698 5696 5694 5691 5689 5687 5684 5681 5679 5677 5675 5673 5671 5669 5668 5666
5724 5725 5725 5726 5725 5725 5725 5725 5725 5724 5724 5723 5722 5721 5720 5718 5717 5715 5713 5711 5709 5707 5704 5702 5699 5697 5694 5692 5689 5687 5685 5683 5680 5678 5675 5673 5670 5667 5665 5663 5661 5659 5657 5656
5716 5716 5717 5718 5718 5717 5717 5717 5717 5716 5716 5715 5714 5713 5712 5710 5709 5707 5706 5704 5702 5699 5697 5694 5692 5689 5686 5684 5681 5679 5676 5674 5671 5669 5667 5664 5661 5659 5656 5654 5651 5649 5647 5645
5708 5708 5709 5710 5710 5709 5709 5709 5708 5708 5707 5707 5706 5705 5704 5703 5701 5700 5698 5696 5694 5692 5689 5687 5684 5681 5678 5675 5673 5670 5667 5665 5662 5660 5657 5655 5652 5649 5647 5644 5642 5639 5636 5634
5700 5700 5701 5701 5702 5701 5701 5700 5700 5700 5699 5698 5698 5696 5695 5694 5693 5691 5690 5688 5686 5684 5681 5679 5676 5673 5670 5667 5664 5661 5658 5656 5653 5650 5648 5645 5642 5639 5637 5634 5631 5629 5626 5624
5692 5692 5692 5693 5693 5693 5692 5692 5692 5691 5691 5690 5689 5688 5687 5686 5684 5683 5681 5680 5678 5676 5673 5670 5667 5664 5661 5658 5655 5652 5649 5646 5643 5641 5638 5635 5632 5629 5626 5624 5621 5618 5616 5614
5683 5683 5684 5684 5684 5683 5683 5683 5682 5682 5682 5681 5680 5679 5678 5677 5676 5674 5672 5671 5669 5666 5664 5661 5658 5655 5652 5649 5646 5642 5639 5636 5633 5631 5628 5625 5622 5619 5616 5613 5611 5608 5606 5604
5674 5674 5674 5674 5674 5674 5674 5673 5673 5673 5672 5672 5671 5670 5669 5668 5666 5665 5663 5661 5659 5657 5654 5652 5649 5645 5642 5639 5636 5632 5629 5626 5624 5621 5618 5615 5612 5610 5607 5604 5601 5598 5596 5594
5665 5665 5665 5665 5665 5665 5665 5665 5664 5664 5663 5662 5662 5661 5659 5658 5656 5655 5653 5651 5649 5647 5645 5642 5639 5636 5632 5629 5626 5622 5619 5616 5613 5611 5608 5605 5602 5600 5597 5594 5592 5589 5587 5585
5656 5656 5656 5656 5656 5656 5656 5655 5655 5654 5654 5653 5652 5651 5649 5648 5646 5644 5642 5641 5638 5636 5634 5631 5628 5625 5622 5619 5615 5612 5609 5606 5603 5600 5598 5595 5593 5590 5587 5585 5583 5580 5578 5576
5647 5647 5647 5647 5647 5647 5646 5646 5645 5645 5644 5643 5642 5640 5639 5637 5635 5633 5632 5630 5628 5625 5623 5620 5618 5615 5612 5608 5605 5602 5599 5596 5593 5590 5587 5585 5582 5580 5578 5575 5573 5571 5569 5567
5638 5638 5638 5638 5638 5638 5637 5636 5635 5635 5634 5633 5631 5630 5628 5627 5625 5623 5621 5619 5617 5615 5612 5610 5607 5604 5601 5598 5594 5591 5588 5585 5583 5580 5577 5575 5573 5570 5568 5566 5563 5561 5559 5557
5629 5629 5629 5629 5628 5628 5628 5627 5626 5625 5624 5623 5621 5620 5618 5617 5615 5613 5611 5609 5606 5604 5602 5599 5596 5594 5590 5587 5584 5581 5579 5576 5573 5570 5568 5565 5563 5561 5558 5556 5554 5552 5550 5548
5620 5619 5619 5619 5619 5619 5618 5618 5617 5615 5614 5613 5612 5610 5608 5607 5605 5603 5600 5598 5596 5594 5591 5589 5586 5583 5580 5577 5574 5572 5569 5567 5564 5561 5559 5556 5554 5552 5549 5547 5545 5543 5541 5538
5611 5610 5610 5610 5610 5609 5609 5608 5607 5606 5605 5604 5602 5601 5599 5597 5595 5593 5591 5588 5586 5583 5581 5578 5575 5572 5569 5567 5564 5562 5559 5557 5554 5552 5550 5548 5546 5543 5541 5539 5536 5534 5532 5530
5601 5601 5601 5600 5600 5600 5599 5598 5598 5597 5595 5594 5593 5591 5589 5587 5585 5583 5581 5578 5576 5573 5570 5568 5565 5562 5559 5557 5554 5552 5550 5548 5546 5544 5542 5540 5538 5535 5533 5531 5528 5526 5524 5521
5592 5592 5591 5591 5591 5590 5589 5588 5588 5587 5585 5584 5583 5581 5579 5577 5575 5573 5571 5568 5566 5563 5560 5557 5555 5552 5550 5547 5545 5543 5541 5539 5538 5536 5534 5532 5530 5528 5525 5523 5520 5518 5516 5513